sat.trackr.live / text

‹ back to catalog

STARLINK-34245

NORAD 64193 · 2025-113Z

PAYLOAD ACTIVE UNKNOWN

§ Identity

Operator
Country
US
Launch date
2025-05-28
Launch site
AFETR
Launch vehicle
Mass (kg)
RCS (m²)

Purposes: comms

External: N2YO · Heavens-Above · Gunter

§ Orbital elements

Epoch: 2026-05-25T03:24:51.087744Z

Period
93.85 min
Inclination
53.1598°
Eccentricity
0.0001315
Mean motion
15.34386047 rev/d
Perigee alt
461.8 km
Apogee alt
463.6 km
Semi-major
6,840.9 km
B*
8.1842e-4
RAAN
95.0738°
Arg perigee
98.9936°
Mean anomaly
261.1216°
Rev number
5,674

§ Raw data

STARLINK-342451 64193U 25113Z   26145.14225796  .00027364  00000+0  81842-3 0  99962 64193  53.1598  95.0738 0001315  98.9936 261.1216 15.34386047 56744

JSON: /api/v1/satellites/64193 · /tle

For live sub-satellite position, see the globe view (requires WebGL).

§ Visibility from observer

Set your observer location to see the next 7 days of passes ≥ 10°. The values pass through the URL so the page stays shareable.

No JS? Fill the form by hand. The geolocation button needs JavaScript.